Regional Weather Roundup
Issued by NWS

Home | Current Version | Previous Version | Graphics & Text | Print | Product List | Glossary On
Versions: 1 2 3 4 5 6 7 8 9 10 11 12 13 14 15 16 17 18 19 20 21 22 23 24 25 26 27 28 29 30 31 32 33 34 35 36 37 38 39 40 41 42 43 44 45 46 47 48 49 50
000
ASUS43 KFSD 270302
RWRSD

WEATHER ROUNDUP FOR SOUTH DAKOTA
NATIONAL WEATHER SERVICE SIOUX FALLS SD
1000 PM CDT WED JUL 26 2017

NOTE: "FAIR" INDICATES FEW OR NO CLOUDS BELOW 12,000 FEET WITH NO
SIGNIFICANT WEATHER AND/OR OBSTRUCTIONS TO VISIBILITY.


SDZ001>005-009-010-012>017-270400-
NORTHWEST AND NORTH CENTRAL SOUTH DAKOTA

CITY           SKY/WX    TMP DP  RH WIND       PRES   REMARKS
BUFFALO          N/A     78  50  37 S10       30.05R
FAITH            N/A     78  52  40 SE13      30.11R
MOBRIDGE       CLEAR     75  58  55 E12       30.07R
$$

SDZ012>016-024>037-041>051-057-063-072>074-270400-
SOUTHWEST AND SOUTH CENTRAL SOUTH DAKOTA

CITY           SKY/WX    TMP DP  RH WIND       PRES   REMARKS
RAPID CTY ARPT CLEAR     74  50  42 E8        30.14R
PIERRE         CLEAR     75  54  47 SE6       30.08R
CUSTER         CLOUDY    68  49  50 SE6       30.30R
ELLSWORTH AFB  MOCLDY    76  51  41 SE14      30.14R
PHILIP         CLEAR     74  52  46 E8        30.10R
PINE RIDGE     CLOUDY    75  57  53 SE3       30.17R
SPEARFISH      FAIR      72  50  46 SE6       30.17S
WINNER         FAIR      73  59  61 SE7       30.12R
$$

SDZ004>011-016>023-039-040-270400-
NORTHEAST SOUTH DAKOTA

CITY           SKY/WX    TMP DP  RH WIND       PRES   REMARKS
ABERDEEN       CLEAR     71  63  75 NE5       30.09R
WATERTOWN      CLEAR     69  60  73 N3        30.09R
BROOKINGS      CLEAR     69  62  78 CALM      30.09R
SISSETON         N/A     68  64  87 NW6       30.07R
$$

SDZ017-020-022-023-036>040-048>070-270400-
SOUTHEAST SOUTH DAKOTA

CITY           SKY/WX    TMP DP  RH WIND       PRES   REMARKS
SIOUX FALLS    PTCLDY    68  62  81 N3        30.07R
HURON          CLEAR     71  60  68 CALM      30.08R
CHAMBERLAIN    CLEAR     75  62  64 E3        30.10S
MITCHELL       CLEAR     73  65  75 CALM      30.08R
YANKTON        CLEAR     73  63  70 N9        30.07R
$$

ABBREVIATIONS USED IN REMARKS
   TC - TEMPERATURE IN CELSIUS
  WCI - WIND CHILL INDEX
   HX - HEAT INDEX
  VSB - VISIBILITY





USA.gov is the U.S. government's official web portal to all federal, state and local government web resources and services.